Simultaneous Nadir Overpasses (SNOs) Predictions

Prediction of SNOs between NPP and TERRA Satellite Orbit:

Table of predicted SNOs for the next 14.0 days since TLE Epoch: 9/3/2022
Index Date (NPP) Time (NPP) Lat,Lon (NPP) SZA (NPP ) Date (TERRA) Time (TERRA) Lat,Lon (TERRA) SZA (TERRA ) Distance(km) Time Diff (sec)
1 09/05/2022 08:14:56 70.37, 52.27 63.54 09/05/2022 08:16:06 70.24, 53.26 63.38 40.20 70
2 09/05/2022 09:05:30 -69.86,-139.63 116.98 09/05/2022 09:05:41 -69.85,-139.64 116.98 0.75 11
3 09/05/2022 09:56:14 69.74, 27.85 62.92 09/05/2022 09:55:08 69.74, 27.85 62.92 0.30 66
4 09/08/2022 00:31:43 69.93, 168.72 64.08 09/08/2022 00:32:35 69.90, 168.67 64.05 3.16 52
5 09/08/2022 01:22:25 -69.83, -23.82 116.01 09/08/2022 01:22:04 -69.85, -23.77 115.99 3.01 21
6 09/08/2022 02:12:53 68.87, 144.86 63.02 09/08/2022 02:11:46 68.90, 142.63 63.10 89.57 67
7 09/10/2022 15:58:12 -70.91, 115.62 113.92 09/10/2022 15:59:18 -70.77, 118.16 114.10 93.94 66
8 09/10/2022 16:48:39 69.91, -75.49 65.07 09/10/2022 16:48:59 69.89, -75.47 65.04 2.21 20
9 09/10/2022 17:39:20 -69.76, 92.05 115.08 09/10/2022 17:38:29 -69.79, 92.02 115.05 3.24 51
10 09/13/2022 08:14:51 -70.00,-127.17 113.84 09/13/2022 08:15:56 -69.99,-127.11 113.86 2.94 65
11 09/13/2022 09:05:34 69.84, 40.38 66.02 09/13/2022 09:05:23 69.86, 40.37 66.04 2.52 11
12 09/13/2022 09:56:10 -69.43,-151.69 114.40 09/13/2022 09:54:58 -69.49,-152.51 114.32 32.57 72
13 09/16/2022 00:31:46 -69.94, -11.30 112.88 09/16/2022 00:32:20 -69.95, -11.27 112.87 2.13 34
14 09/16/2022 01:22:30 69.83, 156.16 67.03 09/16/2022 01:21:47 69.83, 156.20 67.03 1.42 43



Historial Predications of SNOs between NPP and TERRA
